Location: Fornova de Taro
(44.7000°N, 10.1000°E)
Time: 21:40:44
(UTC+00:00)

Cosmos 2278 Rocket - Pass Details

Date: 26 May 2022
Orbit: 840 x 846 km, 71.0° (Epoch: 03 July)

Event Time Altitude Azimuth Distance (km) Brightness Sun altitude
Rises 01:38:06 0° 318° (NW) 3,414 5.5 -16.7°
Reaches altitude 10° 01:41:30 10° 298° (WNW) 2,473 4.6 -16.4°
Maximum altitude 01:44:46 16° 262° (W) 2,079 3.8 -16.0°
Enters shadow 01:45:12 16° 257° (WSW) 2,086 3.8 -16.0°
